Volver al catálogo

FENGYUN 1C DEB

ActivoPO
NORAD 30967·DEBRIS·🇨🇳 China

Lanzado May 10, 1999 desde Taiyuan Satellite Launch Center

Loading…

Próximos Pases (próximas 24 horas)

TLE

ActualizadoSource: Space-Track

Época: Sep 13, 2026, 09:00 UTC

1 30967U 99025BBH 26256.37565904  .00001900  00000-0  39214-3 0  9992
2 30967  98.7927 222.8472 0093987 118.9652 242.1008 14.58960985 30087

Sigue FENGYUN 1C DEB en tiempo real con AllMySat

Download on the App Store